Location: *
(60.1759°S, 155.0663°W)
Time: 03:17:44
(UTC+00:00)

Cosmos 1867 - Pass Details

Date: 17 September 2019
Orbit: 775 x 800 km, 65.0° (Epoch: 18 October)

Event Time Altitude Azimuth Distance (km) Brightness Sun altitude
Rises 12:08:12 0° 242° (WSW) 3,294 6.7 -28.1°
Enters shadow 12:08:19 - 242° (WSW) 3,247 6.7 -28.1°
Exits shadow 12:13:10 28° 234° (SW) 1,447 4.9 -27.8°
Maximum altitude 12:16:04 73° 155° (SSE) 832 3.7 -27.6°
Drops below altitude 10° 12:21:30 10° 69° (ENE) 2,356 6.2 -27.2°
Sets 12:23:55 0° 66° (ENE) 3,283 6.9 -27.0°
